QTR8111 OTHH-LIMC

Flight info

Callsign QTR8111
Flight time N/A
Altitude 28000
Route DATRI L564 BAT/N0491F290 L564 MIGMA/N0478F280 M628 AMBAG/N0485F360 M321 KSA T503 TAMRO/N0481F380 T503 OVANO L768 FIRAS R655 KTN R785 NIKAS L619 VESAR UN135 IMR UN127 RIKSO DCT TALAS DCT MAVAR DCT GEBNI DCT SPL DCT BAXON/N0469F390 DCT GOXIN DCT OTNUN DCT LOMED/N0473F400 DCT BEROK DCT MIVKI DCT GOLAS/N0389F180 T648 MEBUR
Aircraft B77L/H-SDE1E2E3FGHIJ2J3J4J5M1RWXY/LB1D1

Departure

Time N/A
Airport Hamad International Airport (OTHH)

Arrival

Time 2026-05-04 12:02
Airport Milan Malpensa International Airport (LIMC)
Time Latitude Longitude Altitude Speed Heading
2026-05-04 07:55 30.53182 40.49077 38049 ft 451 kts 306°
2026-05-04 07:55 30.55529 40.46671 38077 ft 451 kts 307°
2026-05-04 07:56 30.60229 40.41844 38053 ft 451 kts 307°
2026-05-04 07:56 30.64932 40.37006 38046 ft 451 kts 307°
2026-05-04 07:57 30.69624 40.32172 38046 ft 451 kts 306°
2026-05-04 07:57 30.74312 40.27338 38047 ft 450 kts 306°
2026-05-04 07:58 30.79005 40.22489 38102 ft 451 kts 307°
2026-05-04 07:58 30.83688 40.17645 38049 ft 450 kts 307°
2026-05-04 07:59 30.88369 40.12800 38040 ft 449 kts 307°
2026-05-04 07:59 30.93029 40.07969 38047 ft 448 kts 307°
2026-05-04 08:00 30.97674 40.03144 38045 ft 447 kts 306°
2026-05-04 08:02 31.16039 39.84004 38046 ft 447 kts 306°
2026-05-04 08:02 31.20673 39.79158 38062 ft 447 kts 306°
2026-05-04 08:03 31.25308 39.74306 38052 ft 447 kts 306°
2026-05-04 08:03 31.29939 39.69450 38037 ft 447 kts 306°
2026-05-04 08:04 31.34562 39.64596 38038 ft 447 kts 306°
2026-05-04 08:04 31.39182 39.59738 38036 ft 446 kts 306°
2026-05-04 08:05 31.43802 39.54874 38039 ft 446 kts 306°
2026-05-04 08:05 31.48408 39.50006 38037 ft 446 kts 306°
2026-05-04 08:06 31.53013 39.45128 38043 ft 446 kts 306°
2026-05-04 08:06 31.57611 39.40249 38044 ft 445 kts 306°
2026-05-04 08:08 31.75955 39.20723 38035 ft 445 kts 306°
2026-05-04 08:10 31.98363 39.05559 38026 ft 472 kts 321°
2026-05-04 08:11 32.01285 39.03826 38043 ft 472 kts 321°
2026-05-04 08:11 32.09912 38.98732 38054 ft 473 kts 321°
2026-05-04 08:12 32.15808 38.95262 38039 ft 473 kts 321°
2026-05-04 08:12 32.21708 38.91780 38032 ft 474 kts 321°
2026-05-04 08:13 32.27613 38.88288 38053 ft 474 kts 321°
2026-05-04 08:13 32.33524 38.84788 38034 ft 475 kts 321°
2026-05-04 08:14 32.39394 38.81306 38028 ft 476 kts 321°
2026-05-04 08:16 32.63032 38.67237 38058 ft 474 kts 321°
2026-05-04 08:16 32.68943 38.63711 38011 ft 475 kts 321°
2026-05-04 08:17 32.74843 38.60189 38008 ft 474 kts 321°
2026-05-04 08:17 32.80739 38.56661 38007 ft 474 kts 321°
2026-05-04 08:19 33.04228 38.42553 38006 ft 475 kts 321°
2026-05-04 08:20 33.10134 38.38994 38007 ft 475 kts 321°
2026-05-04 08:20 33.16034 38.35425 38001 ft 475 kts 321°
2026-05-04 08:21 33.21923 38.31822 38005 ft 476 kts 321°
2026-05-04 08:21 33.27822 38.28220 38011 ft 476 kts 321°
2026-05-04 08:22 33.33719 38.24619 38004 ft 476 kts 321°
2026-05-04 08:24 33.57376 38.10193 37988 ft 479 kts 321°
2026-05-04 08:24 33.63330 38.06577 37979 ft 479 kts 321°
2026-05-04 08:25 33.69274 38.02957 37977 ft 479 kts 321°
2026-05-04 08:25 33.75076 37.99414 37976 ft 481 kts 321°
2026-05-04 08:27 33.93216 37.80689 37948 ft 433 kts 291°
2026-05-04 08:28 33.96384 37.74495 37942 ft 434 kts 291°
2026-05-04 08:28 33.99585 37.68310 37965 ft 436 kts 291°
2026-05-04 08:29 34.02804 37.62125 37951 ft 437 kts 291°
2026-05-04 08:31 34.15681 37.37292 37927 ft 440 kts 291°
2026-05-04 08:33 34.29075 37.16498 37934 ft 460 kts 303°
2026-05-04 08:33 34.31296 37.13726 37922 ft 460 kts 303°
2026-05-04 08:35 34.48787 36.91550 37920 ft 458 kts 303°
2026-05-04 08:35 34.53175 36.85951 37922 ft 458 kts 303°
2026-05-04 08:37 34.68535 36.66285 37927 ft 461 kts 303°
2026-05-04 08:38 34.72957 36.60599 37927 ft 463 kts 303°
2026-05-04 08:38 34.77385 36.54893 37929 ft 464 kts 303°
2026-05-04 08:40 34.95172 36.31872 37940 ft 470 kts 305°
2026-05-04 08:41 34.99651 36.26052 37934 ft 471 kts 305°
2026-05-04 08:41 35.04126 36.20224 37946 ft 471 kts 305°
2026-05-04 08:42 35.08605 36.14386 37928 ft 470 kts 305°
2026-05-04 08:42 35.13057 36.08569 37928 ft 467 kts 305°
2026-05-04 08:43 35.17492 36.02765 37926 ft 466 kts 305°
2026-05-04 08:43 35.19570 35.99911 37914 ft 455 kts 297°
2026-05-04 08:43 35.20992 35.96674 37933 ft 438 kts 283°
2026-05-04 08:44 35.21932 35.89507 37928 ft 429 kts 263°
2026-05-04 08:46 35.23827 35.60883 37903 ft 444 kts 291°
2026-05-04 08:46 35.26797 35.54247 37892 ft 444 kts 292°
2026-05-04 08:47 35.29745 35.47604 37891 ft 444 kts 291°
2026-05-04 08:47 35.32656 35.40919 37877 ft 445 kts 291°
2026-05-04 08:48 35.35551 35.34214 37872 ft 445 kts 291°
2026-05-04 08:48 35.38441 35.27498 37871 ft 446 kts 291°
2026-05-04 08:49 35.41321 35.20794 37855 ft 448 kts 291°
2026-05-04 08:50 35.51418 34.97198 37857 ft 451 kts 292°
2026-05-04 08:51 35.54329 34.90366 37837 ft 452 kts 292°
2026-05-04 08:51 35.57238 34.83524 37827 ft 452 kts 292°
2026-05-04 08:52 35.60146 34.76671 37827 ft 452 kts 292°
2026-05-04 08:52 35.63028 34.69862 37825 ft 452 kts 292°
2026-05-04 08:54 35.74632 34.42313 37819 ft 455 kts 293°
2026-05-04 08:55 35.77536 34.35380 37814 ft 456 kts 293°
2026-05-04 08:55 35.80436 34.28443 37812 ft 456 kts 292°
2026-05-04 09:01 36.07407 33.53255 37809 ft 461 kts 289°
2026-05-04 09:01 36.09792 33.45891 37808 ft 461 kts 289°
2026-05-04 09:02 36.12157 33.38571 37805 ft 461 kts 289°
2026-05-04 09:02 36.14535 33.31194 37810 ft 461 kts 289°
2026-05-04 09:03 36.16904 33.23824 37811 ft 461 kts 289°
2026-05-04 09:03 36.19265 33.16451 37801 ft 460 kts 289°
2026-05-04 09:04 36.21619 33.09079 37815 ft 461 kts 289°
2026-05-04 09:04 36.23970 33.01701 37795 ft 460 kts 289°
2026-05-04 09:05 36.26256 32.94511 37813 ft 460 kts 289°
2026-05-04 09:05 36.28596 32.87133 37821 ft 460 kts 289°
2026-05-04 09:06 36.30936 32.79732 37814 ft 461 kts 289°
2026-05-04 09:08 36.40245 32.50203 37826 ft 461 kts 289°
2026-05-04 09:08 36.42576 32.42770 37816 ft 463 kts 289°
2026-05-04 09:09 36.44911 32.35303 37843 ft 464 kts 289°
2026-05-04 09:09 36.47248 32.27810 37819 ft 465 kts 290°
2026-05-04 09:10 36.49578 32.20322 37823 ft 464 kts 290°
2026-05-04 09:10 36.51901 32.12837 37817 ft 464 kts 290°
2026-05-04 09:11 36.54202 32.05405 37819 ft 463 kts 290°
2026-05-04 09:11 36.56447 31.98131 37807 ft 461 kts 290°
2026-05-04 09:12 36.58737 31.90689 37811 ft 460 kts 290°
2026-05-04 09:14 36.67440 31.62233 37811 ft 459 kts 290°
2026-05-04 09:14 36.69768 31.54817 37810 ft 460 kts 291°
2026-05-04 09:15 36.72252 31.47469 37806 ft 461 kts 292°
2026-05-04 09:15 36.74717 31.40076 37815 ft 462 kts 291°
2026-05-04 09:17 36.84550 31.05980 37832 ft 463 kts 290°
2026-05-04 09:18 36.86635 30.98673 37824 ft 462 kts 289°
2026-05-04 09:18 36.88780 30.91126 37874 ft 461 kts 290°
2026-05-04 09:19 36.90928 30.83551 37851 ft 463 kts 290°
2026-05-04 09:19 36.93320 30.76108 37849 ft 460 kts 296°
2026-05-04 09:20 36.96157 30.68945 37850 ft 458 kts 296°
2026-05-04 09:20 36.98989 30.61822 37853 ft 457 kts 296°
2026-05-04 09:21 37.01766 30.54755 37861 ft 457 kts 296°
2026-05-04 09:21 37.04557 30.47601 37867 ft 457 kts 296°
2026-05-04 09:22 37.07344 30.40438 37874 ft 457 kts 296°
2026-05-04 09:22 37.10128 30.33266 37876 ft 458 kts 296°
2026-05-04 09:23 37.12911 30.26085 37901 ft 459 kts 296°
2026-05-04 09:23 37.15698 30.18874 37904 ft 459 kts 296°
2026-05-04 09:25 37.26891 29.90349 37946 ft 460 kts 297°
2026-05-04 09:26 37.29841 29.83220 37943 ft 460 kts 297°
2026-05-04 09:26 37.32767 29.76067 37944 ft 459 kts 297°
2026-05-04 09:27 37.35653 29.68900 37949 ft 459 kts 296°
2026-05-04 09:27 37.38429 29.61657 37952 ft 459 kts 296°
2026-05-04 09:28 37.41179 29.54454 37952 ft 460 kts 296°
2026-05-04 09:28 37.43958 29.47211 37952 ft 460 kts 296°
2026-05-04 09:29 37.46730 29.39949 37947 ft 460 kts 296°
2026-05-04 09:29 37.49432 29.32647 37953 ft 460 kts 295°
2026-05-04 09:30 37.52121 29.25319 37956 ft 461 kts 295°
2026-05-04 09:30 37.54818 29.17968 37957 ft 462 kts 295°
2026-05-04 09:31 37.57519 29.10607 37973 ft 463 kts 295°
2026-05-04 09:31 37.60224 29.03222 37972 ft 464 kts 295°
2026-05-04 09:32 37.62850 28.96038 37982 ft 464 kts 295°
2026-05-04 09:34 37.73600 28.66399 37981 ft 464 kts 295°
2026-05-04 09:34 37.76219 28.58996 37978 ft 464 kts 295°
2026-05-04 09:35 37.78846 28.51542 37984 ft 464 kts 295°
2026-05-04 09:35 37.81473 28.44079 37991 ft 464 kts 295°
2026-05-04 09:37 37.91927 28.14237 37999 ft 463 kts 295°
2026-05-04 09:38 37.94521 28.06785 38016 ft 462 kts 295°
2026-05-04 09:38 37.97026 27.99570 37994 ft 461 kts 295°
2026-05-04 09:39 37.99601 27.92137 38002 ft 460 kts 295°
2026-05-04 09:39 38.02444 27.84984 38014 ft 457 kts 300°
2026-05-04 09:40 38.05264 27.77752 38012 ft 458 kts 295°
2026-05-04 09:40 38.07773 27.70322 38021 ft 459 kts 294°
2026-05-04 09:42 38.18025 27.40487 38022 ft 461 kts 295°
2026-05-04 09:43 38.20597 27.33051 38035 ft 462 kts 295°
2026-05-04 09:43 38.23186 27.25545 38036 ft 464 kts 295°
2026-05-04 09:44 38.25773 27.18019 38066 ft 465 kts 295°
2026-05-04 09:46 38.39967 26.91389 38051 ft 464 kts 320°
2026-05-04 09:46 38.44896 26.86065 38071 ft 464 kts 320°
2026-05-04 09:47 38.49766 26.80730 38063 ft 464 kts 319°
2026-05-04 09:49 38.69253 26.59040 38088 ft 465 kts 319°
2026-05-04 09:51 38.85638 26.39094 38094 ft 467 kts 306°
2026-05-04 09:51 38.89299 26.32193 38109 ft 468 kts 305°
2026-05-04 09:52 38.92928 26.25249 38089 ft 468 kts 305°
2026-05-04 09:52 38.96575 26.18310 38107 ft 468 kts 306°
2026-05-04 09:53 39.00217 26.11406 38107 ft 468 kts 306°
2026-05-04 09:53 39.03868 26.04486 38112 ft 467 kts 305°
2026-05-04 09:54 39.07403 25.97771 38123 ft 467 kts 306°
2026-05-04 09:54 39.11041 25.90844 38112 ft 466 kts 305°
2026-05-04 09:55 39.14645 25.83967 38128 ft 466 kts 305°
2026-05-04 09:55 39.18259 25.77053 38130 ft 465 kts 305°
2026-05-04 09:56 39.21868 25.70136 38126 ft 465 kts 305°
2026-05-04 09:56 39.25470 25.63216 38119 ft 465 kts 305°
2026-05-04 09:57 39.29074 25.56280 38128 ft 465 kts 305°
2026-05-04 09:57 39.32680 25.49323 38140 ft 466 kts 305°
2026-05-04 09:58 39.36291 25.42341 38140 ft 468 kts 305°
2026-05-04 09:58 39.39904 25.35340 38145 ft 469 kts 305°
2026-05-04 10:00 39.54319 25.07253 38152 ft 468 kts 305°
2026-05-04 10:04 39.78614 24.59346 38159 ft 467 kts 305°
2026-05-04 10:04 39.82181 24.52251 38158 ft 468 kts 305°
2026-05-04 10:05 39.85740 24.45156 38159 ft 468 kts 305°
2026-05-04 10:05 39.89293 24.38056 38143 ft 468 kts 305°
2026-05-04 10:06 39.92840 24.30952 38158 ft 468 kts 305°
2026-05-04 10:06 39.96387 24.23832 38164 ft 468 kts 305°
2026-05-04 10:08 40.08627 23.99138 38161 ft 468 kts 305°
2026-05-04 10:08 40.12152 23.91992 38170 ft 468 kts 305°
2026-05-04 10:09 40.15674 23.84835 38166 ft 468 kts 305°
2026-05-04 10:09 40.19196 23.77661 38163 ft 469 kts 305°
2026-05-04 10:10 40.22711 23.70483 38157 ft 467 kts 304°
2026-05-04 10:10 40.26183 23.63377 38154 ft 465 kts 304°
2026-05-04 10:11 40.29662 23.56240 38165 ft 464 kts 304°
2026-05-04 10:11 40.33124 23.49126 38155 ft 462 kts 304°
2026-05-04 10:12 40.36575 23.42017 38145 ft 462 kts 305°
2026-05-04 10:12 40.40011 23.34918 38155 ft 461 kts 305°
2026-05-04 10:13 40.43443 23.27815 38158 ft 460 kts 305°
2026-05-04 10:13 40.46869 23.20711 38156 ft 461 kts 305°
2026-05-04 10:14 40.50295 23.13587 38157 ft 461 kts 304°
2026-05-04 10:16 40.63818 22.85305 38158 ft 459 kts 304°
2026-05-04 10:16 40.67210 22.78172 38141 ft 459 kts 304°
2026-05-04 10:17 40.70587 22.71050 38158 ft 457 kts 304°
2026-05-04 10:19 40.83931 22.42757 38156 ft 452 kts 305°
2026-05-04 10:19 40.87245 22.35691 38171 ft 452 kts 305°
2026-05-04 10:20 40.90526 22.28677 38148 ft 451 kts 305°
2026-05-04 10:20 40.93822 22.21614 38146 ft 450 kts 305°
2026-05-04 10:21 40.97106 22.14566 38173 ft 450 kts 305°
2026-05-04 10:21 41.00372 22.07536 38159 ft 450 kts 305°
2026-05-04 10:22 41.05195 21.97124 38163 ft 449 kts 305°
2026-05-04 10:23 41.08453 21.90051 38163 ft 449 kts 304°
2026-05-04 10:25 41.20939 21.61290 38167 ft 451 kts 304°
2026-05-04 10:25 41.24093 21.54000 38170 ft 452 kts 304°
2026-05-04 10:26 41.27200 21.46803 38169 ft 452 kts 303°
2026-05-04 10:26 41.30325 21.39544 38167 ft 452 kts 303°
2026-05-04 10:27 41.33450 21.32268 38170 ft 452 kts 303°
2026-05-04 10:27 41.36564 21.24997 38168 ft 453 kts 303°
2026-05-04 10:28 41.39679 21.17709 38164 ft 452 kts 303°
2026-05-04 10:28 41.42781 21.10431 38164 ft 450 kts 303°
2026-05-04 10:29 41.45862 21.03186 38158 ft 448 kts 303°
2026-05-04 10:29 41.48840 20.96167 38167 ft 445 kts 303°
2026-05-04 10:30 41.51878 20.88988 38150 ft 443 kts 303°
2026-05-04 10:30 41.54896 20.81841 38166 ft 442 kts 303°
2026-05-04 10:31 41.57882 20.74753 38145 ft 439 kts 303°
2026-05-04 10:32 41.68434 20.49970 38184 ft 436 kts 306°
2026-05-04 10:33 41.71761 20.43189 38167 ft 435 kts 307°
2026-05-04 10:33 41.75103 20.36420 38175 ft 436 kts 306°
2026-05-04 10:34 41.78438 20.29613 38165 ft 437 kts 306°
2026-05-04 10:34 41.81762 20.22790 38163 ft 437 kts 306°
2026-05-04 10:35 41.85075 20.15964 38176 ft 436 kts 306°
2026-05-04 10:35 41.88382 20.09137 38170 ft 437 kts 306°
2026-05-04 10:36 41.91673 20.02329 38170 ft 438 kts 306°
2026-05-04 10:36 41.94926 19.95584 38175 ft 439 kts 306°
2026-05-04 10:37 41.98226 19.88724 38163 ft 440 kts 306°
2026-05-04 10:37 42.01539 19.81824 38165 ft 440 kts 306°
2026-05-04 10:39 42.13112 19.57587 38174 ft 438 kts 306°
2026-05-04 10:40 42.16381 19.50709 38173 ft 438 kts 306°
2026-05-04 10:40 42.19665 19.43780 38165 ft 438 kts 305°
2026-05-04 10:41 42.22945 19.36843 38161 ft 438 kts 305°
2026-05-04 10:41 42.26213 19.29919 38164 ft 437 kts 305°
2026-05-04 10:42 42.29476 19.22987 38157 ft 437 kts 305°
2026-05-04 10:42 42.32730 19.16057 38160 ft 437 kts 305°
2026-05-04 10:43 42.35979 19.09124 38152 ft 436 kts 305°
2026-05-04 10:45 42.48821 18.81558 38170 ft 436 kts 304°
2026-05-04 10:45 42.52027 18.74637 38143 ft 437 kts 304°
2026-05-04 10:46 42.55250 18.67662 38146 ft 436 kts 304°
2026-05-04 10:46 42.58465 18.60691 38157 ft 436 kts 304°
2026-05-04 10:47 42.61679 18.53700 38185 ft 437 kts 304°
2026-05-04 10:47 42.64904 18.46672 38178 ft 439 kts 304°
2026-05-04 10:49 42.77255 18.19597 38179 ft 441 kts 303°
2026-05-04 10:50 42.80465 18.12465 38178 ft 443 kts 302°
2026-05-04 10:52 42.91982 17.82962 38169 ft 443 kts 300°
2026-05-04 10:52 42.94849 17.75581 38158 ft 443 kts 300°
2026-05-04 10:54 43.06288 17.45939 38152 ft 440 kts 300°
2026-05-04 10:56 43.17639 17.16211 38154 ft 441 kts 299°
2026-05-04 10:57 43.20453 17.08791 38153 ft 441 kts 299°
2026-05-04 10:57 43.23279 17.01322 38150 ft 441 kts 298°
2026-05-04 10:58 43.26020 16.94059 38155 ft 441 kts 298°
2026-05-04 10:58 43.28834 16.86579 38150 ft 440 kts 298°
2026-05-04 10:59 43.31642 16.79099 38154 ft 440 kts 298°
2026-05-04 10:59 43.34442 16.71620 38149 ft 440 kts 298°
2026-05-04 11:00 43.37238 16.64131 38148 ft 440 kts 298°
2026-05-04 11:02 43.48342 16.34189 38143 ft 440 kts 297°
2026-05-04 11:05 43.67796 15.76900 38150 ft 443 kts 295°
2026-05-04 11:06 43.70376 15.69167 38141 ft 443 kts 295°
2026-05-04 11:06 43.72951 15.61429 38137 ft 443 kts 295°
2026-05-04 11:10 43.90909 15.06831 38157 ft 447 kts 294°
2026-05-04 11:12 44.01032 14.75551 38131 ft 448 kts 293°
2026-05-04 11:12 44.03575 14.67636 38132 ft 448 kts 293°
2026-05-04 11:13 44.06093 14.59772 38137 ft 449 kts 293°
2026-05-04 11:13 44.08626 14.51841 38155 ft 449 kts 293°
2026-05-04 11:14 44.09053 14.50501 38136 ft 449 kts 293°
2026-05-04 11:16 44.21213 14.12061 38144 ft 449 kts 292°
2026-05-04 11:16 44.23695 14.04144 38128 ft 449 kts 292°
2026-05-04 11:17 44.26115 13.96401 38132 ft 449 kts 292°
2026-05-04 11:19 44.36061 13.64336 38117 ft 451 kts 292°
2026-05-04 11:19 44.38538 13.56288 38132 ft 450 kts 292°
2026-05-04 11:20 44.40649 13.48064 38124 ft 448 kts 280°
2026-05-04 11:20 44.41200 13.39428 38380 ft 451 kts 266°
2026-05-04 11:22 44.38978 13.09048 40090 ft 454 kts 264°
2026-05-04 11:22 44.38661 13.04665 40115 ft 453 kts 264°
2026-05-04 11:23 44.38047 12.96182 40110 ft 447 kts 264°
2026-05-04 11:25 44.35818 12.66086 40116 ft 444 kts 264°
2026-05-04 11:25 44.35169 12.57546 40112 ft 445 kts 264°
2026-05-04 11:27 44.32145 12.18773 40103 ft 446 kts 264°
2026-05-04 11:28 44.31455 12.10159 40107 ft 446 kts 264°
2026-05-04 11:28 44.30759 12.01556 40108 ft 446 kts 264°
2026-05-04 11:29 44.30078 11.93209 40104 ft 445 kts 264°
2026-05-04 11:29 44.29370 11.84626 40104 ft 444 kts 264°
2026-05-04 11:33 44.22433 11.25531 40133 ft 448 kts 236°
2026-05-04 11:33 44.20379 11.22249 40117 ft 452 kts 225°
2026-05-04 11:33 44.18024 11.19324 40125 ft 453 kts 224°
2026-05-04 11:34 44.14061 11.14538 40135 ft 454 kts 224°
2026-05-04 11:34 44.08599 11.07718 40136 ft 454 kts 225°
2026-05-04 11:35 44.06468 11.04531 40116 ft 447 kts 238°
2026-05-04 11:35 44.05104 11.00702 40137 ft 442 kts 254°
2026-05-04 11:35 44.04411 10.92512 40128 ft 441 kts 275°
2026-05-04 11:36 44.05658 10.85651 40136 ft 441 kts 286°
2026-05-04 11:36 44.07536 10.77507 40143 ft 443 kts 286°
2026-05-04 11:37 44.09365 10.69301 40138 ft 445 kts 285°
2026-05-04 11:37 44.10261 10.65149 39715 ft 448 kts 285°
2026-05-04 11:37 44.11140 10.61025 39288 ft 442 kts 285°
2026-05-04 11:38 44.12012 10.56923 38706 ft 440 kts 285°
2026-05-04 11:38 44.12872 10.52861 38034 ft 437 kts 285°
2026-05-04 11:38 44.13734 10.48787 36947 ft 443 kts 285°
2026-05-04 11:38 44.14613 10.44622 35785 ft 451 kts 285°
2026-05-04 11:39 44.15503 10.40411 34789 ft 456 kts 285°
2026-05-04 11:39 44.16401 10.36152 33876 ft 458 kts 284°
2026-05-04 11:40 44.21581 10.11320 30325 ft 434 kts 288°
2026-05-04 11:41 44.22736 10.07468 29703 ft 433 kts 294°
2026-05-04 11:41 44.24150 10.03753 29129 ft 431 kts 298°
2026-05-04 11:41 44.25799 10.00277 28571 ft 428 kts 303°
2026-05-04 11:41 44.27418 9.97135 28048 ft 425 kts 304°
2026-05-04 11:42 44.29151 9.93814 27514 ft 422 kts 304°
2026-05-04 11:42 44.30879 9.90494 26950 ft 418 kts 304°
2026-05-04 11:42 44.32580 9.87202 26435 ft 415 kts 303°
2026-05-04 11:42 44.34236 9.83975 25930 ft 412 kts 303°
2026-05-04 11:43 44.35896 9.80726 25416 ft 409 kts 302°
2026-05-04 11:43 44.37539 9.77497 24920 ft 406 kts 302°
2026-05-04 11:43 44.39174 9.74272 24385 ft 404 kts 303°
2026-05-04 11:43 44.40802 9.71070 23894 ft 402 kts 303°
2026-05-04 11:44 44.42418 9.67889 23325 ft 400 kts 303°
2026-05-04 11:44 44.44024 9.64722 22779 ft 397 kts 303°
2026-05-04 11:44 44.45644 9.61651 22246 ft 394 kts 306°
2026-05-04 11:44 44.47484 9.58796 21778 ft 392 kts 311°
2026-05-04 11:45 44.49360 9.56092 21303 ft 389 kts 311°
2026-05-04 11:45 44.51250 9.53385 20808 ft 386 kts 311°
2026-05-04 11:45 44.53119 9.50697 20347 ft 384 kts 311°
2026-05-04 11:45 44.54982 9.48005 19875 ft 382 kts 311°
2026-05-04 11:46 44.56823 9.45329 19387 ft 381 kts 311°
2026-05-04 11:46 44.58667 9.42640 18902 ft 381 kts 311°
2026-05-04 11:46 44.60478 9.39990 18383 ft 380 kts 311°
2026-05-04 11:46 44.62313 9.37305 17873 ft 378 kts 311°
2026-05-04 11:47 44.64142 9.34631 17375 ft 376 kts 311°
2026-05-04 11:47 44.65941 9.31995 16895 ft 375 kts 311°
2026-05-04 11:47 44.67741 9.29353 16426 ft 373 kts 311°
2026-05-04 11:47 44.69537 9.26719 15934 ft 371 kts 311°
2026-05-04 11:48 44.71323 9.24092 15479 ft 369 kts 311°
2026-05-04 11:48 44.73079 9.21506 15026 ft 368 kts 311°
2026-05-04 11:48 44.74913 9.18979 14557 ft 368 kts 317°
2026-05-04 11:48 44.76975 9.16898 14121 ft 369 kts 326°
2026-05-04 11:49 44.79250 9.15218 13631 ft 369 kts 334°
2026-05-04 11:49 44.81623 9.13834 13138 ft 368 kts 335°
2026-05-04 11:49 44.83996 9.12481 12678 ft 366 kts 336°
2026-05-04 11:49 44.86355 9.11140 12218 ft 363 kts 336°
2026-05-04 11:50 44.88696 9.09803 11672 ft 360 kts 336°
2026-05-04 11:50 44.90978 9.08491 11216 ft 356 kts 336°
2026-05-04 11:50 44.93266 9.07169 10763 ft 352 kts 336°
2026-05-04 11:50 44.95505 9.05869 10557 ft 340 kts 336°
2026-05-04 11:51 44.97662 9.04616 10391 ft 328 kts 336°
2026-05-04 11:51 44.99712 9.03422 10250 ft 316 kts 336°
2026-05-04 11:51 45.01706 9.02259 10120 ft 303 kts 336°
2026-05-04 11:51 45.03622 9.01140 9988 ft 292 kts 336°
2026-05-04 11:52 45.05490 9.00047 9666 ft 287 kts 336°
2026-05-04 11:52 45.07199 8.99046 9440 ft 281 kts 336°
2026-05-04 11:52 45.08998 8.97991 9136 ft 277 kts 336°
2026-05-04 11:52 45.10777 8.96948 8859 ft 280 kts 336°
2026-05-04 11:53 45.12598 8.95880 8580 ft 285 kts 336°
2026-05-04 11:53 45.14446 8.94794 8297 ft 287 kts 336°
2026-05-04 11:53 45.16294 8.93707 8012 ft 285 kts 336°
2026-05-04 11:53 45.18109 8.92638 7693 ft 284 kts 337°
2026-05-04 11:55 45.30600 8.85283 5594 ft 268 kts 337°
2026-05-04 11:55 45.32331 8.84261 5325 ft 269 kts 336°
2026-05-04 11:56 45.34027 8.83258 5163 ft 263 kts 336°
2026-05-04 11:56 45.35685 8.82276 5024 ft 251 kts 336°
2026-05-04 11:56 45.37265 8.81340 4909 ft 240 kts 336°
2026-05-04 11:56 45.38788 8.80439 4820 ft 238 kts 336°
2026-05-04 11:57 45.40333 8.79523 4615 ft 243 kts 336°
2026-05-04 11:57 45.41865 8.78612 4340 ft 238 kts 336°
2026-05-04 11:57 45.43388 8.77767 4069 ft 231 kts 342°
2026-05-04 11:57 45.44935 8.77250 3823 ft 225 kts 347°
2026-05-04 11:58 45.46465 8.76848 3607 ft 224 kts 347°
2026-05-04 11:58 45.47992 8.76437 3352 ft 222 kts 347°
2026-05-04 11:58 45.49496 8.76023 3108 ft 216 kts 347°
2026-05-04 11:58 45.50967 8.75617 2790 ft 213 kts 347°
2026-05-04 11:59 45.52406 8.75222 2500 ft 207 kts 347°
2026-05-04 11:59 45.53764 8.74850 2321 ft 195 kts 346°
2026-05-04 11:59 45.55083 8.74483 1994 ft 188 kts 346°
2026-05-04 11:59 45.56308 8.74146 1770 ft 168 kts 347°
2026-05-04 12:00 45.57395 8.73848 1540 ft 153 kts 346°
2026-05-04 12:00 45.58431 8.73561 1358 ft 153 kts 347°
2026-05-04 12:00 45.59474 8.73270 1165 ft 154 kts 346°
2026-05-04 12:00 45.60545 8.72978 926 ft 158 kts 346°
2026-05-04 12:01 45.61627 8.72669 778 ft 159 kts 346°
2026-05-04 12:01 45.62677 8.72383 747 ft 143 kts 349°
2026-05-04 12:02 45.62861 8.72080 756 ft 18 kts 169°
2026-05-04 12:03 45.62735 8.72117 752 ft 18 kts 168°
2026-05-04 12:03 45.62609 8.72153 752 ft 18 kts 169°
2026-05-04 12:03 45.62483 8.72188 753 ft 18 kts 169°
2026-05-04 12:03 45.62357 8.72222 753 ft 18 kts 169°
2026-05-04 12:04 45.62231 8.72257 752 ft 18 kts 168°
2026-05-04 12:04 45.62105 8.72292 756 ft 18 kts 169°
2026-05-04 12:04 45.61979 8.72327 753 ft 18 kts 169°
2026-05-04 12:04 45.61852 8.72361 753 ft 18 kts 169°
2026-05-04 12:05 45.61727 8.72397 754 ft 18 kts 168°
2026-05-04 12:05 45.61601 8.72430 753 ft 18 kts 170°
2026-05-04 12:05 45.61474 8.72465 753 ft 18 kts 169°
2026-05-04 12:05 45.61396 8.72354 756 ft 18 kts 257°
2026-05-04 12:06 45.61394 8.72204 752 ft 15 kts 301°
2026-05-04 12:06 45.61490 8.72146 755 ft 15 kts 344°
2026-05-04 12:06 45.61594 8.72118 755 ft 15 kts 350°
2026-05-04 12:06 45.61634 8.72105 755 ft 5 kts 333°
2026-05-04 12:07 45.61640 8.72061 755 ft 5 kts 261°
2026-05-04 12:07 45.61634 8.72012 755 ft 5 kts 260°
2026-05-04 12:07 45.61631 8.71986 755 ft 0 kts 260°
2026-05-04 12:07 45.61631 8.71984 755 ft 0 kts 260°